Home   Weather   Boulder   Past weeks

Flag for USA Past Weather in Boulder, Colorado, USA — Yesterday and Last 2 Weeks

Now
7 °F

Passing clouds.


Feels Like: 7 °F
Forecast: -4 / 20 °F
Wind: No wind

Location: Broomfield / Jeffco

Current Time: Dec 7, 2016 at 7:30:34 pm

Latest Report: Dec 7, 2016 at 6:45 pm


Visibility: 10 mi

Pressure: 30.33 "Hg (24.49 "Hg at 1623m altitude)

Humidity: 85%

Dew Point: 3 °F

Location of BoulderLocation

Past Weather in Boulder — Graph

°F

Boulder Temperature Yesterday

Maximum temperature yesterday: 28 °F (at 12:47 pm)
Minimum temperature yesterday: 16 °F (at 5:47 am)
Average temperature yesterday: 21 °F

High & Low Weather Summary for the Past Weeks

 TemperatureHumidityPressure
High63 °F (Nov 25, 2:48 pm)100% (Nov 23, 5:45 am)30.36 "Hg (Nov 23, 5:45 am)
Low7 °F (Dec 7, 5:45 pm)9% (Nov 25, 2:48 pm)29.32 "Hg (Nov 28, 12:47 pm)
Average33 °F46%29.91 "Hg
* Reported Nov 22 5:46 pm — Dec 7 5:45 pm, Boulder, Weather by CustomWeather, © 2016

Note: Actual official high and low records may vary slightly from our data, if they occured in-between our weather recording intervals... More about our weather records

Advertising

Boulder Weather History for the Previous 24 Hours

Scroll right to see more
 ConditionsComfort  
Time TempWeatherWind HumidityBarometerVisibility
5:45 pm
Wed, Dec 7
7 °FPartly cloudy.5 mph78%30.30 "Hg10 mi
3:45 pm10 °FBroken clouds.5 mph72%30.25 "Hg4 mi
2:45 pm12 °FLight snow. Broken clouds.6 mph73%30.22 "Hg3 mi
1:47 pm10 °FLight snow. Ice fog.5 mph79%30.18 "Hg2 mi
12:47 pm12 °FIce fog.8 mph73%30.17 "Hg4 mi
11:47 am10 °FIce fog.5 mph79%30.17 "Hg4 mi
10:45 am9 °FIce fog.5 mph85%30.18 "Hg4 mi
9:47 am10 °FLight snow. More clouds than sun.10 mph79%30.17 "Hg5 mi
8:50 am9 °FLight snow. More clouds than sun.8 mph85%30.15 "Hg5 mi
7:50 am10 °FLight snow. Mostly cloudy.12 mph85%30.10 "Hg3 mi
6:50 am10 °FSnow. Mostly cloudy.17 mph85%30.06 "Hg1 mi
5:55 am12 °FSnow. Mostly cloudy.18 mph92%30.02 "Hg1 mi
4:55 am18 °FLight snow. Low clouds.6 mph93%29.98 "Hg2 mi
4:36 am18 °FLight snow. Overcast.6 mph93%29.96 "Hg2 mi
4:16 am18 °FLight snow. Mostly cloudy.6 mph93%29.95 "Hg4 mi
3:55 am18 °FLight snow. Mostly cloudy.6 mph93%29.93 "Hg3 mi
3:36 am18 °FLight snow. Mostly cloudy.5 mph93%29.92 "Hg3 mi
3:16 am18 °FLight snow. Overcast.6 mph93%29.91 "Hg5 mi
2:55 am18 °FLight snow. Overcast.5 mph93%29.91 "Hg5 mi
2:36 am18 °FLight snow. Mostly cloudy.5 mph93%29.91 "Hg7 mi
2:15 am18 °FLight snow. Mostly cloudy.3 mph93%29.90 "Hg4 mi
1:56 am18 °FLight snow. Overcast.5 mph93%29.89 "Hg5 mi
1:35 am18 °FLight snow. Overcast.No wind93%29.89 "Hg4 mi
1:16 am18 °FLight snow. Low clouds.8 mph93%29.87 "Hg2 mi
12:56 am19 °FLight snow. Low clouds.5 mph86%29.89 "Hg1 mi
12:35 am19 °FLight snow. Low clouds.5 mph93%29.90 "Hg2 mi
12:16 am19 °FLight snow. Low clouds.6 mph93%29.90 "Hg2 mi
11:56 pm
Tue, Dec 6
19 °FLight snow. Low clouds.7 mph93%29.87 "Hg2 mi
11:36 pm19 °FLight snow. Low clouds.9 mph93%29.88 "Hg2 mi
11:15 pm19 °FLight snow. Low clouds.5 mph93%29.88 "Hg1 mi
10:56 pm19 °FLight snow. Low clouds.7 mph93%29.86 "Hg1 mi
10:36 pm19 °FLight snow. Low clouds.7 mph93%29.85 "Hg1 mi
10:16 pm19 °FLight snow. Mostly cloudy.6 mph86%29.85 "Hg2 mi
9:47 pm18 °FLight snow. Mostly cloudy.3 mph93%29.84 "Hg4 mi
8:47 pm21 °FLight snow. Overcast.6 mph68%29.84 "Hg10 mi
Weather by CustomWeather, © 2016

See weather overviewHow to use our weather pages